Weather Roundup
Issued by NWS Springfield, MO

Home | Current Version | Previous Version | Text Only | Print | Product List | Glossary On
Versions: 1 2 3 4 5 6 7 8 9 10 11 12 13 14 15 16 17 18 19 20 21 22 23 24 25 26 27 28 29 30 31 32 33 34 35 36 37 38 39 40 41 42 43 44 45 46 47 48 49 50
000
NZUS99 KSGF 201757
HRRSGF

HOURLY WEATHER
NATIONAL WEATHER SERVICE SPRINGFIELD MO
100 PM CDT SUN AUG 20 2017

......SGF CWA......

CITY           SKY/WX    TMP DP  RH WIND       PRES   REMARKS
SPRINGFIELD    MOSUNNY   86  72  62 E9        30.06F HX  92
6HR MIN TEMP:  75; 6HR MAX TEMP:  89;

JOPLIN         CLOUDY    93  76  57 SW9       30.02F HX 105
6HR MIN TEMP:  80; 6HR MAX TEMP:  93;

WEST PLAINS    CLOUDY    76  69  79 N7        30.10F
6HR MIN TEMP:  73; 6HR MAX TEMP:  84;

ROLLA          CLOUDY    83  69  62 E7        30.07F
6HR MIN TEMP:  72; 6HR MAX TEMP:  84;

BRANSON        PTSUNNY   90  73  58 SW7       30.08F HX  98

......SURROUNDING SGF CWA......

CITY           SKY/WX    TMP DP  RH WIND       PRES   REMARKS
CHANUTE        CLOUDY    91  75  59 SE10      29.99F HX 101
PARSONS        SUNNY     92  76  59 S6        30.00F HX 104
COFFEYVILLE    SUNNY     92  76  59 S9        29.98F HX 104
EMPORIA        SUNNY     88  72  58 S14       29.97F HX  94
HARRISON AR    SUNNY     91  72  53 W6        30.08F HX  98

......KANSAS AND MISSOURI......

CITY           SKY/WX    TMP DP  RH WIND       PRES   REMARKS
KANSAS CTY INT MOSUNNY   84  70  62 SE14      30.00F
SEDALIA        SUNNY     85  73  67 S15       30.04F HX  91
ST JOSEPH      CLOUDY    80  70  71 NE9G21    30.01R
ST LOUIS       CLOUDY    86  66  51 VRB5      30.05F
WICHITA        PTSUNNY   94  71  47 S15       29.95F HX 101
TOPEKA         SUNNY     88  72  58 SE14      29.96F HX  94
OLATHE         SUNNY     83  71  67 SE12      30.00F

......TENNESSEE......

CITY           SKY/WX    TMP DP  RH WIND       PRES   REMARKS
MEMPHIS        NOT AVBL
NASHVILLE      PTSUNNY   91  71  51 E7        30.10F HX  97

......ARKANSAS.......

CITY           SKY/WX    TMP DP  RH WIND       PRES   REMARKS
FAYETTEVILLE   MOSUNNY   90  76  63 S9        30.07F HX 101
FT SMITH       SUNNY     93  73  52 W5        30.02F HX 102
LITTLE ROCK    MOSUNNY   94  76  55 VRB7      30.03F HX 106

......OKLAHOMA.......

CITY           SKY/WX    TMP DP  RH WIND       PRES   REMARKS
TULSA          PTSUNNY   94  73  50 S7        29.97F HX 103
MCALESTER      MOSUNNY   94  75  54 S9        30.03F HX 105
OKLAHOMA CITY  CLOUDY    89  69  51 S15       30.01S HX  93

......IOWA............

CITY           SKY/WX    TMP DP  RH WIND       PRES   REMARKS
DES MOINES     NOT AVBL

......ILLINOIS........

CITY           SKY/WX    TMP DP  RH WIND       PRES   REMARKS
QUINCY         NOT AVBL
CHICAGO        PTSUNNY   86  64  47 SW8       30.02F




USA.gov is the U.S. government's official web portal to all federal, state and local government web resources and services.